Regional Weather Roundup
Issued by NWS

Home | Current Version | Previous Version | Text Only | Print | Product List | Glossary Off
Versions: 1 2 3 4 5 6 7 8 9 10 11 12 13 14 15 16 17 18 19 20 21 22 23 24 25 26 27 28 29 30 31 32 33 34 35 36 37 38 39 40 41 42 43 44 45 46 47 48 49 50

000
ASUS45 KCYS 020110
RWRWY

WYOMING REGIONAL WEATHER ROUNDUP
NATIONAL WEATHER SERVICE CHEYENNE WY
700 PM MDT WED JUL 01 2015

NOTE:  "FAIR" INDICATES FEW OR NO CLOUDS BELOW 12,000 FEET
WITH NO SIGNIFICANT WEATHER AND/OR OBSTRUCTIONS TO VISIBILITY.

WYZ001-020200-
YELLOWSTONE NATIONAL PARK

CITY           SKY/WX    TMP DP  RH WIND       PRES   REMARKS
LK YELLOWSTONE   N/A     78  33  19 W7        30.29F
W YELLOWSTONE  NOT AVBL

$$
WYZ002>013-054>058-071-098>099-020200-
NORTHERN WYOMING

CITY           SKY/WX    TMP DP  RH WIND       PRES   REMARKS
JACKSON        FAIR      84  34  16 W9        30.17S
CODY           FAIR      81  52  36 N14       30.07S
GREYBULL       FAIR      92  47  21 N20G30    29.94R
WORLAND        FAIR      79  62  56 S9        29.94S THUNDER
SHERIDAN       FAIR      84  55  36 W6        29.99F
BUFFALO        FAIR      81  53  37 N7        30.08R
GILLETTE       FAIR      77  55  46 E12       30.03S
HULETT         FAIR      79  55  44 E6        30.05S
NEWCASTLE      FAIR      81  48  32 N9        30.03S

$$
WYZ014>020-022>026-101>103-020200-
CENTRAL WYOMING

CITY           SKY/WX    TMP DP  RH WIND       PRES   REMARKS
BIG PINEY      FAIR      84  42  22 NW15      30.21F
PINEDALE       FAIR      81  36  19 NW16      30.21S
DUBOIS         FAIR      81  28  15 NW20G26   30.20S
LANDER         FAIR      79  57  46 S5        30.04F
RIVERTON       FAIR      89  46  22 NE7       30.04F
CASPER         PTSUNNY   80  50  34 S18       30.05R THUNDER
DOUGLAS        FAIR      86  50  28 E9        30.04F

$$
WYZ021-027>030-104>119-020200-
SOUTHERN WYOMING

CITY           SKY/WX    TMP DP  RH WIND       PRES   REMARKS
EVANSTON       FAIR      84  40  21 NW16      30.23F
KEMMERER       FAIR      81  37  21 NW13G23   30.24F
FORT BRIDGER   CLEAR     86  36  16 NW16G24   30.24S
ROCK SPRINGS   FAIR      86  38  18 W20G25    30.14F
DIXON          FAIR      66  56  70 E13       30.20F
RAWLINS        PTSUNNY   66  58  75 S6        30.22S
SARATOGA       RAIN      61  54  77 E9        30.25F
LARAMIE        FAIR      67  51  56 E17       30.25R
CHEYENNE       LGT RAIN  61  56  83 N10G22    30.23S
TORRINGTON     FAIR      85  53  33 E10       29.97F
PINE BLUFFS    CLOUDY    70  55  60 SW16G23   30.10F

$$



USA.gov is the U.S. government's official web portal to all federal, state and local government web resources and services.